Location: Baili�vre
(50.0696°N, 4.2409°E)
Time: 07:51:21
(UTC+00:00)

NOSS 3-2 (C) - Pass Details

Date: 08 August 2020
Orbit: 793 x 1419 km, 63.4° (Epoch: 21 September)

Event Time Altitude Azimuth Distance (km) Brightness Sun altitude
Exits shadow 23:23:19 - 247° (WSW) 2,730 5.7 -23.9°
Reaches altitude 10° 23:23:51 10° 248° (WSW) 2,539 5.5 -23.9°
Maximum altitude 23:29:35 52° 325° (NW) 1,197 4.2 -24.0°
Drops below altitude 10° 23:36:16 10° 41° (NE) 2,943 6.6 -24.1°
Sets 23:39:15 0° 46° (NE) 4,005 7.3 -24.1°
